Greenville, TX

11:37 PM CDT on October 17, 2017 (GMT -0500)
Majors

Weather History for KGVT - August, 2013

Change the Weather History Date:

Tuesday, August 20, 2013

  Actual Average Record
Temperature  
Mean Temperature 81 °F -  
Max Temperature 96 °F 91 °F 105 °F (2011)
Min Temperature 66 °F 73 °F 64 °F (2015)
Cooling Degree Days 16    
Growing Degree Days 31 (Base 50)    
Moisture  
Dew Point 57 °F    
Average Humidity 48    
Maximum Humidity 78    
Minimum Humidity 19    
Precipitation  
Precipitation 0.00 in - - ()
Sea Level Pressure  
Sea Level Pressure 30.01 in    
Wind  
Wind Speed 1 mph (SSE)    
Max Wind Speed 9 mph    
Max Gust Speed -    
Visibility 10 miles    
Events      
Averages and records for this station are not official NWS values.
T = Trace of Precipitation, MM = Missing Value Source: NWS Daily Summary

Daily Weather History Graph

Daily Weather History Graph

Search for Another Location

Airport or City:

Trip Planner

Search our weather history database for the weather conditions in past years. The results will help you decide how hot, cold, wet, or windy it might be!

Date:

Astronomy

Aug. 20, 2013 Rise Set
Actual Time 6:50 AM CDT 8:03 PM CDT
Civil Twilight 6:25 AM CDT 8:29 PM CDT
Nautical Twilight 5:54 AM CDT 9:00 PM CDT
Astronomical Twilight 5:22 AM CDT 9:31 PM CDT
Moon 7:39 PM CDT (8/20) 6:20 AM CDT (8/20)
Length of Visible Light 14h 04m
Length of Day
13h 12m
Full, 100% of the Moon is Illuminated
Aug 20
Full
Aug 20
Full
Aug 28
Last Quarter
Sep 5
New
Sep 12
First Quarter

Hourly Weather History & Observations

Time (CDT) Temp. Heat Index Dew Point Humidity Pressure Visibility Wind Dir Wind Speed Gust Speed Precip Events Conditions
12:15 AM 73.4 °F - 55.4 °F 53% 30.00 in 10.0 mi Calm Calm - N/A   Clear
12:35 AM 73.4 °F - 55.4 °F 53% 30.00 in 10.0 mi Calm Calm - N/A   Clear
12:55 AM 73.4 °F - 55.4 °F 53% 30.00 in 10.0 mi Calm Calm - N/A   Clear
1:15 AM 71.6 °F - 57.2 °F 60% 30.00 in 10.0 mi Calm Calm - N/A   Clear
1:35 AM 73.4 °F - 57.2 °F 57% 30.00 in 10.0 mi Calm Calm - N/A   Clear
1:55 AM 73.4 °F - 57.2 °F 57% 30.00 in 10.0 mi Calm Calm - N/A   Clear
2:15 AM 71.6 °F - 59.0 °F 64% 30.00 in 10.0 mi Calm Calm - N/A   Clear
2:35 AM 71.6 °F - 59.0 °F 64% 30.00 in 10.0 mi Calm Calm - N/A   Clear
2:55 AM 71.6 °F - 59.0 °F 64% 30.00 in 10.0 mi Calm Calm - N/A   Clear
3:15 AM 69.8 °F - 59.0 °F 68% 30.01 in 10.0 mi Calm Calm - N/A   Clear
3:35 AM 68.0 °F - 60.8 °F 78% 30.01 in 10.0 mi Calm Calm - N/A   Scattered Clouds
3:55 AM 68.0 °F - 60.8 °F 78% 30.01 in 10.0 mi Calm Calm - N/A   Scattered Clouds
4:15 AM 68.0 °F - 59.0 °F 73% 30.01 in 10.0 mi Calm Calm - N/A   Scattered Clouds
4:35 AM 69.8 °F - 59.0 °F 68% 30.01 in 10.0 mi ENE 5.8 mph - N/A   Clear
4:55 AM 69.8 °F - 59.0 °F 68% 30.01 in 10.0 mi ENE 5.8 mph - N/A   Clear
5:15 AM 69.8 °F - 59.0 °F 68% 30.01 in 10.0 mi Calm Calm - N/A   Clear
5:35 AM 68.0 °F - 59.0 °F 73% 30.01 in 10.0 mi Calm Calm - N/A   Clear
5:55 AM 68.0 °F - 59.0 °F 73% 30.02 in 10.0 mi Calm Calm - N/A   Clear
6:15 AM 68.0 °F - 59.0 °F 73% 30.02 in 10.0 mi Calm Calm - N/A   Clear
6:35 AM 68.0 °F - 59.0 °F 73% 30.03 in 10.0 mi Calm Calm - N/A   Clear
6:55 AM 68.0 °F - 59.0 °F 73% 30.03 in 10.0 mi Calm Calm - N/A   Clear
7:15 AM 66.2 °F - 59.0 °F 78% 30.04 in 10.0 mi Calm Calm - N/A   Clear
7:35 AM 68.0 °F - 60.8 °F 78% 30.04 in 10.0 mi Calm Calm - N/A   Clear
7:55 AM 69.8 °F - 60.8 °F 73% 30.04 in 10.0 mi Calm Calm - N/A   Clear
8:15 AM 71.6 °F - 62.6 °F 73% 30.04 in 10.0 mi Calm Calm - N/A   Clear
8:35 AM 75.2 °F - 62.6 °F 65% 30.06 in 10.0 mi Calm Calm - N/A   Clear
8:55 AM 78.8 °F - 62.6 °F 57% 30.06 in 10.0 mi SSE 5.8 mph - N/A   Clear
9:15 AM 80.6 °F 81.8 °F 62.6 °F 54% 30.06 in 10.0 mi South 3.5 mph - N/A   Clear
9:35 AM 82.4 °F 82.9 °F 60.8 °F 48% 30.07 in 10.0 mi South 6.9 mph - N/A   Clear
9:55 AM 84.2 °F 84.4 °F 60.8 °F 45% 30.07 in 10.0 mi SSE 9.2 mph - N/A   Clear
10:15 AM 86.0 °F 86.1 °F 60.8 °F 43% 30.07 in 10.0 mi South 6.9 mph - N/A   Clear
10:35 AM 87.8 °F 87.6 °F 60.8 °F 40% 30.07 in 10.0 mi SSW 8.1 mph - N/A   Clear
10:55 AM 87.8 °F 87.1 °F 59.0 °F 38% 30.07 in 10.0 mi SW 6.9 mph - N/A   Clear
11:15 AM 87.8 °F 87.1 °F 59.0 °F 38% 30.07 in 10.0 mi South 8.1 mph - N/A   Clear
11:35 AM 89.6 °F 88.9 °F 59.0 °F 36% 30.06 in 10.0 mi South 4.6 mph - N/A   Clear
11:55 AM 91.4 °F 89.9 °F 57.2 °F 31% 30.06 in 10.0 mi South 8.1 mph - N/A   Clear
12:15 PM 91.4 °F 89.4 °F 55.4 °F 29% 30.06 in 10.0 mi South 6.9 mph - N/A   Clear
12:35 PM 91.4 °F 89.4 °F 55.4 °F 29% 30.05 in 10.0 mi SSE 6.9 mph - N/A   Clear
12:55 PM 89.6 °F 87.3 °F 53.6 °F 29% 30.04 in 10.0 mi SE 3.5 mph - N/A   Clear
1:15 PM 93.2 °F 91.3 °F 55.4 °F 28% 30.03 in 10.0 mi North - - N/A   Clear
1:35 PM 93.2 °F - 51.8 °F 24% 30.03 in 10.0 mi North - - N/A   Scattered Clouds
1:55 PM 95.0 °F - 51.8 °F 23% 30.02 in - North - - N/A   Clear
2:15 PM 95.0 °F - 51.8 °F 23% 30.02 in 10.0 mi North - - N/A   Clear
2:35 PM 95.0 °F - 51.8 °F 23% 30.01 in 10.0 mi North - - N/A   Clear
2:55 PM 95.0 °F - 51.8 °F 23% 30.01 in 10.0 mi North - - N/A   Clear
3:15 PM 95.0 °F - 51.8 °F 23% 30.00 in 10.0 mi North - - N/A   Clear
3:35 PM 91.4 °F 89.1 °F 53.6 °F 28% 30.00 in 10.0 mi North - - N/A   Clear
3:55 PM 95.0 °F - 50.0 °F 22% 29.99 in 10.0 mi North - - N/A   Clear
4:15 PM 96.8 °F - 48.2 °F 19% 29.99 in 10.0 mi North - - N/A   Clear
4:35 PM 95.0 °F - 50.0 °F 22% 29.98 in 10.0 mi North - - N/A   Clear
4:55 PM 95.0 °F - 48.2 °F 20% 29.98 in 10.0 mi North - - N/A   Clear
5:15 PM 95.0 °F - 50.0 °F 22% 29.97 in - North - - N/A   Clear
5:35 PM 95.0 °F - 50.0 °F 22% 29.97 in - North - - N/A   Clear
5:55 PM 95.0 °F - 50.0 °F 22% 29.97 in - North - - N/A   Clear
6:15 PM 95.0 °F - 51.8 °F 23% 29.97 in - North - - N/A   Clear
6:55 PM 93.2 °F - 51.8 °F 24% 29.96 in 10.0 mi North - - N/A   Clear
7:15 PM - - - N/A% 29.97 in 10.0 mi North - - N/A   Clear
7:35 PM 89.6 °F 87.7 °F 55.4 °F 31% 29.97 in 10.0 mi North - - N/A   Clear
7:55 PM 87.8 °F 86.1 °F 55.4 °F 33% 29.97 in 10.0 mi North - - N/A   Clear
8:15 PM 86.0 °F 84.9 °F 57.2 °F 37% 29.97 in 10.0 mi North - - N/A   Clear
8:35 PM 82.4 °F 82.0 °F 57.2 °F 42% 29.97 in 10.0 mi North - - N/A   Clear
8:55 PM 82.4 °F 82.5 °F 59.0 °F 45% 29.97 in 10.0 mi North - - N/A   Clear
9:15 PM 82.4 °F 82.5 °F 59.0 °F 45% 29.98 in 10.0 mi North - - N/A   Clear
9:35 PM 80.6 °F 81.1 °F 59.0 °F 48% 29.99 in 10.0 mi North - - N/A   Clear
9:55 PM 80.6 °F 81.1 °F 59.0 °F 48% 29.99 in 10.0 mi North - - N/A   Clear
10:15 PM 80.6 °F 81.1 °F 59.0 °F 48% 30.00 in 10.0 mi North - - N/A   Clear
10:35 PM 78.8 °F - 59.0 °F 51% 30.00 in 10.0 mi North - - N/A   Clear
10:55 PM 77.0 °F - 60.8 °F 57% 30.01 in 10.0 mi North - - N/A   Scattered Clouds
11:15 PM 77.0 °F - 60.8 °F 57% 30.01 in 10.0 mi North - - N/A   Clear
11:35 PM 77.0 °F - 60.8 °F 57% 30.01 in 10.0 mi North - - N/A   Scattered Clouds
11:55 PM 75.2 °F - 60.8 °F 61% 30.02 in 10.0 mi North - - N/A   Scattered Clouds